| time (UTC) | temp F | wind direction | speed MPH | gust MPH | rain 1hr in | rain 24hr in | rain mn in | humidity % | barometer mb |
| 20260506190903 | 59 | 202 | 1.0 | 3.0 | 0.02 | 0.08 | 0.08 | 87 | 1003.9 |
| 20260506190004 | 59 | 202 | 0.0 | 3.0 | 0.02 | 0.07 | 0.07 | 87 | 1003.9 |
| 20260506185403 | 58 | 199 | 1.0 | 4.0 | 0.02 | 0.07 | 0.07 | 87 | 1003.9 |
| 20260506184503 | 59 | 187 | 2.0 | 6.0 | 0.02 | 0.07 | 0.07 | 86 | 1003.9 |
| 20260506183603 | 59 | 184 | 2.0 | 6.0 | 0.02 | 0.07 | 0.07 | 86 | 1003.9 |
| 20260506182703 | 59 | 197 | 2.0 | 3.0 | 0.03 | 0.07 | 0.07 | 86 | 1004.2 |
| 20260506181803 | 59 | 191 | 2.0 | 3.0 | 0.04 | 0.07 | 0.07 | 85 | 1004.2 |
| 20260506180903 | 59 | 205 | 2.0 | 3.0 | 0.04 | 0.06 | 0.06 | 85 | 1004.6 |
| 20260506180004 | 60 | 193 | 2.0 | 4.0 | 0.04 | 0.05 | 0.05 | 84 | 1004.2 |
| 20260506175403 | 60 | 192 | 2.0 | 3.0 | 0.05 | 0.05 | 0.05 | 84 | 1004.2 |
| 20260506174503 | 60 | 193 | 2.0 | 4.0 | 0.05 | 0.05 | 0.05 | 83 | 1004.2 |
| 20260506173603 | 60 | 196 | 1.0 | 3.0 | 0.05 | 0.05 | 0.05 | 82 | 1004.2 |
| 20260506172703 | 60 | 197 | 2.0 | 3.0 | 0.04 | 0.04 | 0.04 | 81 | 1004.2 |
| 20260506171803 | 61 | 199 | 1.0 | 3.0 | 0.03 | 0.03 | 0.03 | 80 | 1004.2 |
| 20260506170904 | 61 | 200 | 1.0 | 3.0 | 0.02 | 0.02 | 0.02 | 79 | 1004.6 |
| 20260506170004 | 62 | 202 | 1.0 | 3.0 | 0.01 | 0.01 | 0.01 | 78 | 1005.2 |
| 20260506165404 | 63 | 202 | 1.0 | 3.0 | 0.00 | 0.00 | 0.00 | 78 | 1005.2 |
| 20260506164504 | 64 | 202 | 1.0 | 4.0 | 0.00 | 0.00 | 0.00 | 77 | 1005.2 |
| 20260506163604 | 64 | 202 | 1.0 | 3.0 | 0.00 | 0.00 | 0.00 | 77 | 1005.2 |
| 20260506162704 | 65 | 203 | 1.0 | 3.0 | 0.00 | 0.00 | 0.00 | 76 | 1005.2 |
| 20260506161804 | 66 | 187 | 2.0 | 4.0 | 0.00 | 0.00 | 0.00 | 76 | 1005.2 |
| 20260506160904 | 66 | 177 | 2.0 | 3.0 | 0.00 | 0.00 | 0.00 | 76 | 1005.2 |
| 20260506160004 | 67 | 181 | 2.0 | 4.0 | 0.00 | 0.00 | 0.00 | 77 | 1005.2 |
| 20260506155404 | 67 | 182 | 2.0 | 4.0 | 0.00 | 0.00 | 0.00 | 77 | 1005.6 |
| 20260506154504 | 67 | 180 | 2.0 | 4.0 | 0.00 | 0.00 | 0.00 | 76 | 1005.6 |
| 20260506153604 | 68 | 172 | 1.0 | 4.0 | 0.00 | 0.00 | 0.00 | 77 | 1005.6 |
| 20260506152704 | 68 | 192 | 2.0 | 6.0 | 0.00 | 0.00 | 0.00 | 77 | 1005.9 |
| 20260506151804 | 67 | 194 | 2.0 | 6.0 | 0.00 | 0.00 | 0.00 | 78 | 1005.6 |
| 20260506150904 | 67 | 199 | 2.0 | 4.0 | 0.00 | 0.00 | 0.00 | 78 | 1005.2 |
| 20260506150004 | 67 | 179 | 2.0 | 6.0 | 0.00 | 0.00 | 0.00 | 78 | 1005.6 |
| 20260506145404 | 67 | 177 | 2.0 | 6.0 | 0.00 | 0.00 | 0.00 | 78 | 1005.6 |
| 20260506144504 | 67 | 181 | 2.0 | 6.0 | 0.00 | 0.00 | 0.00 | 79 | 1005.6 |
| 20260506143604 | 67 | 177 | 2.0 | 4.0 | 0.00 | 0.00 | 0.00 | 79 | 1005.9 |
| 20260506142704 | 67 | 191 | 2.0 | 6.0 | 0.00 | 0.00 | 0.00 | 80 | 1005.9 |
| 20260506141804 | 66 | 198 | 2.0 | 6.0 | 0.00 | 0.00 | 0.00 | 80 | 1005.9 |
| 20260506140904 | 66 | 193 | 2.0 | 6.0 | 0.00 | 0.00 | 0.00 | 80 | 1005.9 |
| 20260506140004 | 66 | 187 | 2.0 | 6.0 | 0.00 | 0.00 | 0.00 | 81 | 1005.9 |
| 20260506135404 | 66 | 190 | 2.0 | 6.0 | 0.00 | 0.00 | 0.00 | 81 | 1005.6 |
| 20260506134504 | 66 | 188 | 2.0 | 6.0 | 0.00 | 0.00 | 0.00 | 81 | 1005.9 |
| 20260506133604 | 66 | 188 | 2.0 | 6.0 | 0.00 | 0.00 | 0.00 | 82 | 1005.9 |
| 20260506132704 | 65 | 175 | 2.0 | 4.0 | 0.00 | 0.00 | 0.00 | 83 | 1005.9 |
| 20260506131804 | 65 | 174 | 2.0 | 3.0 | 0.00 | 0.00 | 0.00 | 83 | 1005.9 |
| 20260506130904 | 64 | 184 | 2.0 | 4.0 | 0.00 | 0.00 | 0.00 | 83 | 1005.6 |
| 20260506130005 | 64 | 185 | 1.0 | 3.0 | 0.00 | 0.00 | 0.00 | 84 | 1005.9 |
| 20260506125404 | 63 | 209 | 1.0 | 3.0 | 0.00 | 0.00 | 0.00 | 84 | 1005.9 |
| 20260506124504 | 62 | 208 | 1.0 | 3.0 | 0.00 | 0.00 | 0.00 | 84 | 1005.6 |
| 20260506123604 | 62 | 213 | 1.0 | 4.0 | 0.00 | 0.00 | 0.00 | 84 | 1005.9 |
| 20260506122704 | 62 | 209 | 1.0 | 7.0 | 0.00 | 0.00 | 0.00 | 84 | 1006.3 |
| 20260506121804 | 62 | 194 | 1.0 | 7.0 | 0.00 | 0.00 | 0.00 | 84 | 1006.6 |
| 20260506120904 | 62 | 192 | 2.0 | 4.0 | 0.00 | 0.00 | 0.00 | 85 | 1006.3 |
| 20260506120004 | 62 | 190 | 1.0 | 3.0 | 0.00 | 0.00 | 0.00 | 85 | 1006.3 |
| 20260506115404 | 61 | 190 | 1.0 | 3.0 | 0.00 | 0.00 | 0.00 | 85 | 1006.3 |
| 20260506114504 | 60 | 190 | 1.0 | 3.0 | 0.00 | 0.00 | 0.00 | 85 | 1005.9 |
| 20260506113604 | 59 | 189 | 1.0 | 2.0 | 0.00 | 0.00 | 0.00 | 85 | 1006.3 |
| 20260506112704 | 59 | 189 | 1.0 | 2.0 | 0.00 | 0.00 | 0.00 | 85 | 1006.3 |
| 20260506111804 | 59 | 188 | 1.0 | 3.0 | 0.00 | 0.00 | 0.00 | 85 | 1006.3 |
| 20260506110904 | 59 | 188 | 1.0 | 3.0 | 0.00 | 0.00 | 0.00 | 85 | 1006.3 |
| 20260506110004 | 59 | 188 | 1.0 | 3.0 | 0.00 | 0.00 | 0.00 | 85 | 1006.3 |
| 20260506105404 | 58 | 187 | 0.0 | 2.0 | 0.00 | 0.00 | 0.00 | 85 | 1006.6 |
| 20260506104504 | 57 | 187 | 0.0 | 2.0 | 0.00 | 0.00 | 0.00 | 85 | 1006.3 |
| 20260506103604 | 57 | 0 | 0.0 | 0.0 | 0.00 | 0.00 | 0.00 | 85 | 1006.6 |
| 20260506102704 | 56 | 187 | 0.0 | 2.0 | 0.00 | 0.00 | 0.00 | 85 | 1006.3 |
| 20260506101804 | 56 | 0 | 0.0 | 0.0 | 0.00 | 0.00 | 0.00 | 84 | 1006.3 |
| 20260506100904 | 56 | 187 | 0.0 | 1.0 | 0.00 | 0.00 | 0.00 | 84 | 1006.3 |
| 20260506100004 | 55 | 187 | 0.0 | 2.0 | 0.00 | 0.00 | 0.00 | 84 | 1006.3 |
| 20260506095404 | 55 | 187 | 0.0 | 1.0 | 0.00 | 0.00 | 0.00 | 84 | 1006.3 |
| 20260506094504 | 55 | 0 | 0.0 | 0.0 | 0.00 | 0.00 | 0.00 | 83 | 1005.9 |
| 20260506093604 | 55 | 0 | 0.0 | 0.0 | 0.00 | 0.00 | 0.00 | 83 | 1006.3 |
| 20260506092704 | 55 | 0 | 0.0 | 0.0 | 0.00 | 0.00 | 0.00 | 83 | 1005.9 |
| 20260506091804 | 55 | 0 | 0.0 | 0.0 | 0.00 | 0.00 | 0.00 | 83 | 1005.9 |
| 20260506090904 | 55 | 0 | 0.0 | 0.0 | 0.00 | 0.00 | 0.00 | 82 | 1006.3 |
| 20260506090004 | 56 | 0 | 0.0 | 0.0 | 0.00 | 0.00 | 0.00 | 82 | 1006.3 |
| 20260506085404 | 55 | 0 | 0.0 | 0.0 | 0.00 | 0.00 | 0.00 | 82 | 1006.3 |
| 20260506084504 | 56 | 0 | 0.0 | 0.0 | 0.00 | 0.00 | 0.00 | 81 | 1006.3 |
| 20260506083604 | 56 | 187 | 0.0 | 2.0 | 0.00 | 0.00 | 0.00 | 81 | 1006.6 |
| 20260506082704 | 56 | 187 | 1.0 | 2.0 | 0.00 | 0.00 | 0.00 | 81 | 1006.6 |
| 20260506081804 | 56 | 187 | 0.0 | 2.0 | 0.00 | 0.00 | 0.00 | 81 | 1006.6 |
| 20260506080904 | 56 | 0 | 0.0 | 0.0 | 0.00 | 0.00 | 0.00 | 80 | 1006.6 |
| 20260506072704 | 57 | 187 | 1.0 | 2.0 | 0.00 | 0.00 | 0.00 | 79 | 1006.6 |
| 20260506071804 | 57 | 187 | 1.0 | 2.0 | 0.00 | 0.00 | 0.00 | 78 | 1006.6 |
| 20260506070904 | 57 | 0 | 0.0 | 0.0 | 0.00 | 0.00 | 0.00 | 78 | 1006.6 |
| 20260506061804 | 58 | 187 | 0.0 | 1.0 | 0.00 | 0.00 | 0.00 | 76 | 1006.3 |
| 20260506060904 | 58 | 0 | 0.0 | 0.0 | 0.00 | 0.00 | 0.00 | 75 | 1006.3 |
| 20260506050904 | 59 | 187 | 0.0 | 1.0 | 0.00 | 0.00 | 0.00 | 73 | 1007.3 |
| 20260506044504 | 59 | 0 | 0.0 | 0.0 | 0.00 | 0.00 | 0.00 | 72 | 1007.0 |
| 20260506043604 | 60 | 187 | 0.0 | 1.0 | 0.00 | 0.00 | 0.00 | 72 | 1007.0 |
| 20260506042704 | 60 | 187 | 0.0 | 1.0 | 0.00 | 0.00 | 0.00 | 72 | 1007.0 |
| 20260506041804 | 60 | 187 | 0.0 | 2.0 | 0.00 | 0.00 | 0.00 | 71 | 1007.0 |
| 20260506040904 | 60 | 187 | 1.0 | 2.0 | 0.00 | 0.00 | 0.00 | 71 | 1007.0 |
| 20260506040004 | 60 | 187 | 1.0 | 2.0 | 0.00 | 0.00 | 0.00 | 71 | 1007.0 |
| 20260506035404 | 61 | 187 | 1.0 | 2.0 | 0.00 | 0.00 | 0.00 | 71 | 1006.6 |
| 20260506034504 | 61 | 187 | 1.0 | 3.0 | 0.00 | 0.00 | 0.00 | 70 | 1007.0 |
| 20260506033604 | 61 | 187 | 1.0 | 2.0 | 0.00 | 0.00 | 0.00 | 70 | 1006.6 |
| 20260506032704 | 61 | 187 | 1.0 | 2.0 | 0.00 | 0.00 | 0.00 | 69 | 1006.6 |
| 20260506031804 | 61 | 187 | 0.0 | 2.0 | 0.00 | 0.00 | 0.00 | 69 | 1007.0 |
| 20260506030904 | 61 | 187 | 1.0 | 2.0 | 0.00 | 0.00 | 0.00 | 69 | 1007.0 |
| 20260506030004 | 61 | 187 | 0.0 | 2.0 | 0.00 | 0.00 | 0.00 | 68 | 1007.0 |
| 20260506025404 | 61 | 0 | 0.0 | 0.0 | 0.00 | 0.00 | 0.00 | 68 | 1007.0 |
| 20260506024504 | 62 | 0 | 0.0 | 0.0 | 0.00 | 0.00 | 0.00 | 67 | 1006.6 |
| 20260506023604 | 62 | 187 | 0.0 | 2.0 | 0.00 | 0.00 | 0.00 | 67 | 1007.0 |
| 20260506022704 | 62 | 187 | 1.0 | 3.0 | 0.00 | 0.00 | 0.00 | 67 | 1007.0 |
| 20260506021804 | 62 | 187 | 1.0 | 2.0 | 0.00 | 0.00 | 0.00 | 66 | 1007.0 |
| 20260506020904 | 63 | 187 | 1.0 | 2.0 | 0.00 | 0.00 | 0.00 | 66 | 1007.0 |
| 20260506020004 | 63 | 187 | 0.0 | 2.0 | 0.00 | 0.00 | 0.00 | 66 | 1006.6 |
| 20260506015404 | 63 | 187 | 0.0 | 2.0 | 0.00 | 0.00 | 0.00 | 65 | 1006.6 |
| 20260506014504 | 63 | 187 | 1.0 | 2.0 | 0.00 | 0.00 | 0.00 | 65 | 1006.6 |
| 20260506013604 | 63 | 187 | 1.0 | 2.0 | 0.00 | 0.00 | 0.00 | 65 | 1006.3 |
| 20260506012704 | 64 | 187 | 0.0 | 2.0 | 0.00 | 0.00 | 0.00 | 64 | 1006.3 |
| 20260506011804 | 64 | 187 | 0.0 | 2.0 | 0.00 | 0.00 | 0.00 | 64 | 1006.3 |
| 20260506010904 | 64 | 187 | 1.0 | 2.0 | 0.00 | 0.00 | 0.00 | 63 | 1006.3 |
| 20260506010004 | 64 | 187 | 0.0 | 2.0 | 0.00 | 0.00 | 0.00 | 63 | 1005.9 |
| 20260506005404 | 65 | 187 | 0.0 | 2.0 | 0.00 | 0.00 | 0.00 | 62 | 1005.9 |
| 20260506004504 | 65 | 187 | 0.0 | 2.0 | 0.00 | 0.00 | 0.00 | 62 | 1005.9 |
| 20260506003604 | 65 | 187 | 1.0 | 3.0 | 0.00 | 0.00 | 0.00 | 62 | 1005.9 |
| 20260506002704 | 66 | 187 | 1.0 | 2.0 | 0.00 | 0.00 | 0.00 | 61 | 1005.9 |
| 20260506001804 | 66 | 186 | 1.0 | 3.0 | 0.00 | 0.00 | 0.00 | 61 | 1005.2 |
| 20260506000904 | 66 | 185 | 1.0 | 3.0 | 0.00 | 0.00 | 0.00 | 60 | 1004.9 |
| 20260506000004 | 67 | 203 | 1.0 | 4.0 | 0.00 | 0.00 | 0.00 | 60 | 1004.9 |
| 20260505235404 | 67 | 224 | 1.0 | 4.0 | 0.00 | 0.00 | 0.00 | 59 | 1005.2 |
| 20260505234504 | 68 | 188 | 1.0 | 3.0 | 0.00 | 0.00 | 0.00 | 59 | 1004.9 |
| 20260505233604 | 68 | 182 | 2.0 | 3.0 | 0.00 | 0.00 | 0.00 | 58 | 1005.2 |
| 20260505232704 | 68 | 187 | 1.0 | 3.0 | 0.00 | 0.00 | 0.00 | 58 | 1004.9 |
| 20260505231804 | 69 | 196 | 2.0 | 6.0 | 0.00 | 0.00 | 0.00 | 57 | 1004.9 |
| 20260505230904 | 69 | 194 | 2.0 | 6.0 | 0.00 | 0.00 | 0.00 | 57 | 1004.9 |
| 20260505230004 | 70 | 189 | 1.0 | 6.0 | 0.00 | 0.00 | 0.00 | 56 | 1004.6 |
| 20260505225404 | 70 | 165 | 2.0 | 6.0 | 0.00 | 0.00 | 0.00 | 56 | 1004.6 |
| 20260505224504 | 70 | 182 | 3.0 | 7.0 | 0.00 | 0.00 | 0.00 | 56 | 1004.2 |
| 20260505223604 | 71 | 187 | 3.0 | 7.0 | 0.00 | 0.00 | 0.00 | 55 | 1004.6 |
| 20260505222704 | 72 | 186 | 3.0 | 6.0 | 0.00 | 0.00 | 0.00 | 55 | 1003.9 |
| 20260505221804 | 72 | 190 | 2.0 | 7.0 | 0.00 | 0.00 | 0.00 | 54 | 1004.2 |
| 20260505220904 | 73 | 188 | 3.0 | 7.0 | 0.00 | 0.00 | 0.00 | 54 | 1004.6 |
| 20260505220004 | 73 | 176 | 2.0 | 7.0 | 0.00 | 0.00 | 0.00 | 53 | 1004.6 |
| 20260505215404 | 73 | 186 | 2.0 | 7.0 | 0.00 | 0.00 | 0.00 | 53 | 1004.6 |
| 20260505214504 | 74 | 183 | 3.0 | 6.0 | 0.00 | 0.00 | 0.00 | 52 | 1004.2 |
| 20260505213604 | 74 | 184 | 3.0 | 8.0 | 0.00 | 0.00 | 0.00 | 52 | 1004.2 |
| 20260505212704 | 75 | 186 | 3.0 | 8.0 | 0.00 | 0.00 | 0.00 | 51 | 1003.9 |
| 20260505211803 | 75 | 182 | 3.0 | 7.0 | 0.00 | 0.00 | 0.00 | 51 | 1003.9 |
| 20260505210903 | 76 | 182 | 3.0 | 8.0 | 0.00 | 0.00 | 0.00 | 50 | 1004.2 |
| 20260505210004 | 76 | 178 | 3.0 | 7.0 | 0.00 | 0.00 | 0.00 | 50 | 1003.9 |
| 20260505205404 | 77 | 176 | 3.0 | 7.0 | 0.00 | 0.00 | 0.00 | 50 | 1003.9 |
| 20260505204504 | 77 | 187 | 3.0 | 8.0 | 0.00 | 0.00 | 0.00 | 49 | 1003.9 |
| 20260505203604 | 77 | 188 | 3.0 | 8.0 | 0.00 | 0.00 | 0.00 | 49 | 1003.9 |
| 20260505202703 | 77 | 171 | 4.0 | 8.0 | 0.00 | 0.00 | 0.00 | 48 | 1004.2 |
| 20260505201804 | 79 | 190 | 4.0 | 9.0 | 0.00 | 0.00 | 0.00 | 47 | 1003.9 |
| 20260505200903 | 80 | 191 | 3.0 | 8.0 | 0.00 | 0.00 | 0.00 | 47 | 1004.2 |
| 20260505200004 | 80 | 178 | 4.0 | 9.0 | 0.00 | 0.00 | 0.00 | 46 | 1004.6 |
| 20260505195404 | 81 | 167 | 4.0 | 8.0 | 0.00 | 0.00 | 0.00 | 46 | 1004.2 |
| 20260505194504 | 82 | 170 | 4.0 | 9.0 | 0.00 | 0.00 | 0.00 | 45 | 1004.2 |
| 20260505193603 | 82 | 193 | 4.0 | 10.0 | 0.00 | 0.00 | 0.00 | 45 | 1004.6 |
| 20260505192704 | 83 | 191 | 4.0 | 9.0 | 0.00 | 0.00 | 0.00 | 45 | 1004.2 |
| 20260505191803 | 83 | 170 | 4.0 | 8.0 | 0.00 | 0.00 | 0.00 | 45 | 1004.2 |